IGO6656 VOBL-VOHS

Flight info

Callsign IGO6656
Flight time N/A
Altitude 31000
Route LATID8C LATID Q22 SAKRO SARKA6
Aircraft A21N/M-SDE2E3FGHIRWXY/LB1

Departure

Time 2026-05-05 11:15
Airport Kempegowda International Airport Bengaluru (VOBL)

Arrival

Time N/A
Airport Rajiv Gandhi International Airport (VOHS)
Time Latitude Longitude Altitude Speed Heading
2026-05-05 10:30 13.20181 77.70701 2951 ft 0 kts 181°
2026-05-05 10:57 13.20189 77.70701 2954 ft 3 kts 181°
2026-05-05 10:57 13.20208 77.70700 2958 ft 3 kts 145°
2026-05-05 10:57 13.20218 77.70685 2960 ft 3 kts 100°
2026-05-05 10:57 13.20225 77.70668 2960 ft 3 kts 107°
2026-05-05 10:58 13.20227 77.70662 2957 ft 0 kts 86°
2026-05-05 10:58 13.20228 77.70668 2952 ft 1 kts 71°
2026-05-05 10:58 13.20232 77.70674 2954 ft 1 kts 59°
2026-05-05 10:58 13.20235 77.70680 2956 ft 1 kts 64°
2026-05-05 10:59 13.20236 77.70684 2958 ft 0 kts 71°
2026-05-05 11:06 13.20238 77.70690 2950 ft 2 kts 71°
2026-05-05 11:07 13.20242 77.70712 2958 ft 5 kts 83°
2026-05-05 11:07 13.20244 77.70757 2962 ft 8 kts 91°
2026-05-05 11:07 13.20242 77.70820 2954 ft 10 kts 91°
2026-05-05 11:07 13.20241 77.70896 2951 ft 11 kts 91°
2026-05-05 11:08 13.20241 77.70983 2947 ft 13 kts 89°
2026-05-05 11:08 13.20240 77.71079 2949 ft 14 kts 91°
2026-05-05 11:08 13.20238 77.71184 2954 ft 15 kts 91°
2026-05-05 11:08 13.20239 77.71289 2953 ft 15 kts 91°
2026-05-05 11:09 13.20237 77.71394 2953 ft 15 kts 90°
2026-05-05 11:09 13.20243 77.71477 2944 ft 0 kts 82°
2026-05-05 11:10 13.20243 77.71486 2948 ft 3 kts 89°
2026-05-05 11:11 13.20242 77.71519 2953 ft 6 kts 91°
2026-05-05 11:11 13.20241 77.71576 2945 ft 10 kts 91°
2026-05-05 11:11 13.20240 77.71629 2947 ft 12 kts 91°
2026-05-05 11:11 13.20239 77.71727 2951 ft 15 kts 91°
2026-05-05 11:12 13.20298 77.71799 2938 ft 12 kts
2026-05-05 11:12 13.20383 77.71794 2942 ft 13 kts 358°
2026-05-05 11:12 13.20479 77.71789 2941 ft 14 kts 10°
2026-05-05 11:12 13.20519 77.71869 2936 ft 15 kts 90°
2026-05-05 11:13 13.20519 77.71985 2933 ft 17 kts 89°
2026-05-05 11:13 13.20518 77.72116 2931 ft 19 kts 85°
2026-05-05 11:13 13.20613 77.72177 2934 ft 18 kts 356°
2026-05-05 11:13 13.20693 77.72105 2936 ft 16 kts 263°
2026-05-05 11:14 13.20687 77.72046 2937 ft 0 kts 266°
2026-05-05 11:14 13.20687 77.72041 2937 ft 4 kts 266°
2026-05-05 11:14 13.20685 77.71806 2942 ft 59 kts 270°
2026-05-05 11:15 13.20693 77.71210 2956 ft 107 kts 269°
2026-05-05 11:15 13.20767 77.70270 2996 ft 152 kts 281°
2026-05-05 11:15 13.20881 77.68572 3991 ft 252 kts 275°
2026-05-05 11:15 13.20989 77.66743 4779 ft 264 kts 275°
2026-05-05 11:16 13.21102 77.64797 5530 ft 281 kts 275°
2026-05-05 11:16 13.21240 77.62767 6217 ft 301 kts 278°
2026-05-05 11:16 13.21741 77.60618 6771 ft 322 kts 293°
2026-05-05 11:16 13.23015 77.58639 7036 ft 346 kts 317°
2026-05-05 11:17 13.25036 77.57308 7797 ft 346 kts 340°
2026-05-05 11:17 13.27349 77.56920 9076 ft 333 kts
2026-05-05 11:17 13.29582 77.57338 10458 ft 324 kts 16°
2026-05-05 11:17 13.31708 77.58119 11532 ft 326 kts 21°
2026-05-05 11:18 13.33813 77.59030 12476 ft 330 kts 22°
2026-05-05 11:18 13.35943 77.59944 13375 ft 335 kts 22°
2026-05-05 11:18 13.38176 77.60828 13872 ft 354 kts 20°
2026-05-05 11:18 13.40578 77.61682 14113 ft 375 kts 18°
2026-05-05 11:19 13.43126 77.62505 14355 ft 392 kts 17°
2026-05-05 11:19 13.45787 77.63312 14619 ft 404 kts 16°
2026-05-05 11:19 13.48520 77.64118 14864 ft 413 kts 15°
2026-05-05 11:19 13.51303 77.64936 15117 ft 420 kts 15°
2026-05-05 11:20 13.54111 77.65767 15606 ft 418 kts 15°
2026-05-05 11:20 13.56866 77.66597 16539 ft 407 kts 16°
2026-05-05 11:20 13.59559 77.67424 17560 ft 399 kts 15°
2026-05-05 11:20 13.62183 77.68242 18553 ft 390 kts 15°
2026-05-05 11:21 13.64774 77.69057 19368 ft 388 kts 16°
2026-05-05 11:21 13.67355 77.69870 20047 ft 390 kts 16°
2026-05-05 11:21 13.69963 77.70687 20680 ft 394 kts 15°
2026-05-05 11:21 13.72572 77.71500 21269 ft 399 kts 15°
2026-05-05 11:22 13.75277 77.72337 21881 ft 403 kts 15°
2026-05-05 11:22 13.77980 77.73170 22454 ft 408 kts 15°
2026-05-05 11:22 13.80726 77.74015 23033 ft 413 kts 15°
2026-05-05 11:22 13.83495 77.74865 23581 ft 418 kts 15°
2026-05-05 11:23 13.86301 77.75727 24072 ft 421 kts 15°
2026-05-05 11:23 13.89114 77.76592 24603 ft 424 kts 15°
2026-05-05 11:23 13.91948 77.77463 25106 ft 427 kts 15°
2026-05-05 11:23 13.94770 77.78331 25579 ft 430 kts 15°
2026-05-05 11:24 13.97690 77.79230 26100 ft 433 kts 15°
2026-05-05 11:24 14.00580 77.80119 26601 ft 435 kts 15°
2026-05-05 11:24 14.03480 77.81012 27065 ft 437 kts 15°
2026-05-05 11:24 14.06405 77.81914 27513 ft 440 kts 15°
2026-05-05 11:25 14.09356 77.82824 27968 ft 442 kts 15°
2026-05-05 11:25 14.12308 77.83734 28410 ft 444 kts 16°
2026-05-05 11:25 14.15279 77.84650 28836 ft 446 kts 16°
2026-05-05 11:25 14.18261 77.85570 29242 ft 449 kts 16°
2026-05-05 11:26 14.21229 77.86486 29620 ft 452 kts 16°
2026-05-05 11:26 14.24293 77.87432 30011 ft 455 kts 16°
2026-05-05 11:26 14.27338 77.88372 30349 ft 457 kts 15°
2026-05-05 11:26 14.30394 77.89315 30707 ft 459 kts 15°
2026-05-05 11:27 14.33465 77.90263 30837 ft 466 kts 16°
2026-05-05 11:27 14.38731 77.91884 30859 ft 482 kts 16°
2026-05-05 11:28 14.45288 77.93894 30858 ft 500 kts 15°
2026-05-05 11:28 14.52145 77.95360 31446 ft 493 kts
2026-05-05 11:28 14.55428 77.95864 32266 ft 463 kts
2026-05-05 11:29 14.58570 77.96272 33143 ft 449 kts
2026-05-05 11:29 14.61623 77.96599 34053 ft 435 kts
2026-05-05 11:29 14.64593 77.96858 34863 ft 422 kts
2026-05-05 11:29 14.67475 77.97055 35709 ft 407 kts
2026-05-05 11:30 14.70249 77.97196 36566 ft 392 kts
2026-05-05 11:30 14.72927 77.97297 37373 ft 376 kts
2026-05-05 11:30 14.75481 77.97392 38232 ft 358 kts
2026-05-05 11:30 14.77888 77.97680 39003 ft 338 kts
2026-05-05 11:31 14.80157 77.98068 39470 ft 329 kts
2026-05-05 11:31 14.82483 77.98492 38950 ft 353 kts
2026-05-05 11:31 14.84989 77.98976 38270 ft 382 kts
2026-05-05 11:31 14.87703 77.99520 37507 ft 410 kts
2026-05-05 11:32 14.90586 78.00108 36767 ft 432 kts
2026-05-05 11:32 14.93563 78.00723 36045 ft 437 kts 10°
2026-05-05 11:32 14.96545 78.01346 35347 ft 438 kts 10°
2026-05-05 11:32 14.99538 78.01973 34637 ft 439 kts
2026-05-05 11:33 15.02537 78.02603 33948 ft 441 kts 11°
2026-05-05 11:33 15.05546 78.03236 33179 ft 441 kts 10°
2026-05-05 11:33 15.08556 78.03868 32421 ft 442 kts 10°
2026-05-05 11:33 15.11571 78.04501 31670 ft 442 kts 10°
2026-05-05 11:34 15.14580 78.05133 31106 ft 437 kts 10°
2026-05-05 11:34 15.17514 78.05752 30856 ft 425 kts 10°
2026-05-05 11:34 15.20363 78.06359 30808 ft 408 kts 10°
2026-05-05 11:35 15.25830 78.07534 30806 ft 401 kts
2026-05-05 11:35 15.31299 78.08703 30807 ft 401 kts 10°
2026-05-05 11:36 15.36810 78.09847 30806 ft 400 kts
2026-05-05 11:36 15.42265 78.10779 30801 ft 400 kts
2026-05-05 11:37 15.47774 78.11646 30803 ft 400 kts
2026-05-05 11:37 15.53275 78.12521 30803 ft 400 kts
2026-05-05 11:38 15.58771 78.13412 30484 ft 398 kts
2026-05-05 11:38 15.61541 78.13864 29945 ft 397 kts
2026-05-05 11:38 15.64278 78.14311 29188 ft 400 kts
2026-05-05 11:38 15.67020 78.14757 28653 ft 396 kts
2026-05-05 11:39 15.69733 78.15200 28123 ft 393 kts
2026-05-05 11:39 15.72421 78.15638 27616 ft 390 kts
2026-05-05 11:39 15.75096 78.16076 27102 ft 387 kts
2026-05-05 11:39 15.77747 78.16510 26609 ft 384 kts
2026-05-05 11:40 15.80379 78.16942 26113 ft 381 kts
2026-05-05 11:40 15.82993 78.17370 25636 ft 378 kts
2026-05-05 11:40 15.85580 78.17794 25171 ft 376 kts
2026-05-05 11:40 15.88152 78.18217 24709 ft 373 kts
2026-05-05 11:41 15.90707 78.18637 24258 ft 370 kts
2026-05-05 11:41 15.93383 78.19076 23775 ft 368 kts
2026-05-05 11:41 15.95767 78.19467 23352 ft 365 kts
2026-05-05 11:41 15.98271 78.19878 22825 ft 363 kts
2026-05-05 11:42 16.00765 78.20287 22307 ft 362 kts
2026-05-05 11:42 16.03228 78.20689 21785 ft 360 kts
2026-05-05 11:42 16.05685 78.21091 21278 ft 357 kts
2026-05-05 11:42 16.08132 78.21491 20775 ft 354 kts
2026-05-05 11:43 16.10557 78.21888 20291 ft 351 kts
2026-05-05 11:43 16.12953 78.22281 19924 ft 344 kts
2026-05-05 11:43 16.15292 78.22668 19651 ft 335 kts
2026-05-05 11:43 16.17574 78.23047 19686 ft 335 kts
2026-05-05 11:44 16.19918 78.23435 19913 ft 337 kts
2026-05-05 11:44 16.22232 78.23834 19915 ft 337 kts
2026-05-05 11:44 16.24531 78.24233 19682 ft 336 kts
2026-05-05 11:44 16.26833 78.24626 19436 ft 335 kts
2026-05-05 11:45 16.29180 78.25018 19219 ft 352 kts
2026-05-05 11:45 16.31625 78.25420 18997 ft 356 kts
2026-05-05 11:45 16.34099 78.25824 18769 ft 364 kts
2026-05-05 11:45 16.36613 78.26233 18566 ft 365 kts
2026-05-05 11:46 16.39111 78.26641 18361 ft 363 kts
2026-05-05 11:46 16.41598 78.27048 18153 ft 360 kts
2026-05-05 11:46 16.44075 78.27454 17924 ft 358 kts
2026-05-05 11:46 16.46714 78.27888 17662 ft 357 kts
2026-05-05 11:47 16.48979 78.28260 17441 ft 355 kts
2026-05-05 11:47 16.51630 78.28697 17183 ft 353 kts
2026-05-05 11:47 16.53831 78.29059 16975 ft 351 kts
2026-05-05 11:47 16.56242 78.29456 16745 ft 349 kts
2026-05-05 11:48 16.61016 78.30242 16287 ft 346 kts
2026-05-05 11:48 16.63388 78.30633 16060 ft 344 kts
2026-05-05 11:48 16.65752 78.31023 15836 ft 342 kts
2026-05-05 11:49 16.68095 78.31410 15583 ft 340 kts
2026-05-05 11:49 16.70428 78.31795 15038 ft 337 kts
2026-05-05 11:49 16.72730 78.32175 14628 ft 332 kts
2026-05-05 11:49 16.74989 78.32549 14137 ft 326 kts
2026-05-05 11:50 16.77221 78.32917 13607 ft 322 kts
2026-05-05 11:50 16.79425 78.33083 12984 ft 316 kts 351°
2026-05-05 11:50 16.81486 78.32366 12342 ft 312 kts 335°
2026-05-05 11:50 16.83593 78.31855 11689 ft 314 kts 358°
2026-05-05 11:51 16.85734 78.32259 11090 ft 316 kts 20°
2026-05-05 11:51 16.87652 78.33359 10644 ft 311 kts 31°
2026-05-05 11:51 16.89421 78.34611 10256 ft 303 kts 32°
2026-05-05 11:51 16.91272 78.35610 9782 ft 297 kts 16°
2026-05-05 11:52 16.93292 78.35922 9267 ft 292 kts 359°
2026-05-05 11:52 16.95287 78.36012 9038 ft 292 kts
2026-05-05 11:52 16.97326 78.36278 9007 ft 292 kts
2026-05-05 11:52 16.99338 78.36593 9002 ft 292 kts
2026-05-05 11:53 17.01349 78.36921 9008 ft 292 kts
2026-05-05 11:53 17.03356 78.37252 9002 ft 292 kts
2026-05-05 11:53 17.05370 78.37585 9005 ft 292 kts
2026-05-05 11:53 17.07371 78.37917 9008 ft 290 kts
2026-05-05 11:54 17.09357 78.38246 9010 ft 288 kts
2026-05-05 11:54 17.11305 78.38728 8993 ft 288 kts 19°
2026-05-05 11:54 17.13022 78.39840 8778 ft 292 kts 43°
2026-05-05 11:54 17.14123 78.41592 8554 ft 295 kts 68°
2026-05-05 11:55 17.14499 78.43704 8342 ft 294 kts 84°
2026-05-05 11:55 17.14566 78.45806 8103 ft 284 kts 88°
2026-05-05 11:55 17.14580 78.47847 7755 ft 279 kts 88°
2026-05-05 11:55 17.14595 78.49895 7360 ft 277 kts 88°
2026-05-05 11:56 17.14619 78.51918 7001 ft 279 kts 88°
2026-05-05 11:56 17.14650 78.53916 6757 ft 268 kts 88°
2026-05-05 11:56 17.14680 78.55807 6659 ft 252 kts 89°
2026-05-05 11:56 17.14708 78.57602 6447 ft 243 kts 89°
2026-05-05 11:57 17.14735 78.59352 6154 ft 239 kts 89°
2026-05-05 11:57 17.14764 78.61076 6013 ft 236 kts 89°
2026-05-05 11:57 17.14835 78.62826 6007 ft 250 kts 81°
2026-05-05 11:57 17.15449 78.64624 6011 ft 273 kts 57°
2026-05-05 11:58 17.16807 78.66012 5695 ft 278 kts 29°
2026-05-05 11:58 17.18015 78.66452 5403 ft 279 kts
2026-05-05 11:58 17.19926 78.66207 5104 ft 281 kts 337°
2026-05-05 11:58 17.21446 78.64991 4748 ft 275 kts 305°
2026-05-05 11:59 17.22190 78.63207 4501 ft 261 kts 286°
2026-05-05 11:59 17.22659 78.61427 4317 ft 247 kts 280°
2026-05-05 11:59 17.22956 78.59725 4152 ft 227 kts 276°
2026-05-05 11:59 17.23193 78.58126 3976 ft 219 kts 270°
2026-05-05 12:00 17.23201 78.56542 3859 ft 216 kts 266°
2026-05-05 12:00 17.23157 78.54945 3709 ft 217 kts 267°
2026-05-05 12:00 17.23131 78.53369 3497 ft 217 kts 266°
2026-05-05 12:00 17.23106 78.51798 3273 ft 217 kts 267°
2026-05-05 12:01 17.23128 78.50212 3032 ft 217 kts 268°
2026-05-05 12:01 17.23115 78.48747 2923 ft 184 kts 267°
2026-05-05 12:01 17.23143 78.47483 2918 ft 182 kts 268°
2026-05-05 12:01 17.23164 78.46046 2730 ft 194 kts 272°
2026-05-05 12:02 17.23341 78.44761 3221 ft 181 kts 269°
2026-05-05 12:02 17.23282 78.43355 3486 ft 200 kts 260°
2026-05-05 12:02 17.23155 78.41897 3475 ft 206 kts 262°
2026-05-05 12:02 17.23031 78.40411 3310 ft 205 kts 258°
2026-05-05 12:03 17.22775 78.38918 3459 ft 215 kts 257°
2026-05-05 12:03 17.22462 78.37378 3879 ft 217 kts 254°
2026-05-05 12:03 17.22035 78.35884 4400 ft 212 kts 243°
2026-05-05 12:03 17.21180 78.34640 4804 ft 211 kts 220°
2026-05-05 12:04 17.19892 78.33982 4895 ft 208 kts 188°
2026-05-05 12:04 17.18485 78.34206 4893 ft 208 kts 153°
2026-05-05 12:04 17.17456 78.35242 4909 ft 209 kts 119°
2026-05-05 12:04 17.17149 78.36714 4904 ft 210 kts 88°
2026-05-05 12:05 17.17438 78.38203 4904 ft 210 kts 75°
2026-05-05 12:05 17.17877 78.39662 4902 ft 210 kts 73°
2026-05-05 12:05 17.18255 78.41136 4906 ft 210 kts 83°
2026-05-05 12:05 17.18241 78.42659 4900 ft 209 kts 97°
2026-05-05 12:06 17.18046 78.44167 4889 ft 209 kts 101°
2026-05-05 12:06 17.17797 78.45666 4891 ft 209 kts 101°
2026-05-05 12:06 17.17534 78.47159 4905 ft 209 kts 102°
2026-05-05 12:06 17.17265 78.48647 4901 ft 208 kts 102°
2026-05-05 12:07 17.16994 78.50135 4902 ft 207 kts 102°
2026-05-05 12:07 17.16723 78.51620 4908 ft 207 kts 102°
2026-05-05 12:07 17.16453 78.53097 4906 ft 207 kts 102°
2026-05-05 12:07 17.16182 78.54576 4903 ft 208 kts 102°
2026-05-05 12:08 17.15906 78.56081 4911 ft 208 kts 102°
2026-05-05 12:08 17.15636 78.57557 4765 ft 205 kts 102°
2026-05-05 12:08 17.15368 78.59016 4223 ft 203 kts 102°
2026-05-05 12:08 17.15099 78.60479 4133 ft 205 kts 102°
2026-05-05 12:09 17.14928 78.61956 4121 ft 205 kts 91°
2026-05-05 12:09 17.15202 78.63420 4001 ft 208 kts 70°
2026-05-05 12:09 17.16125 78.64605 3795 ft 213 kts 37°
2026-05-05 12:09 17.17529 78.65038 3603 ft 219 kts 359°
2026-05-05 12:10 17.18932 78.64474 3410 ft 219 kts 320°
2026-05-05 12:10 17.19937 78.63267 3227 ft 218 kts 304°
2026-05-05 12:10 17.20781 78.61950 3059 ft 217 kts 300°
2026-05-05 12:10 17.21596 78.60640 3012 ft 216 kts 302°
2026-05-05 12:11 17.22424 78.59322 2998 ft 215 kts 300°
2026-05-05 12:11 17.23000 78.57882 2985 ft 215 kts 285°
2026-05-05 12:11 17.23236 78.56350 2946 ft 214 kts 269°
2026-05-05 12:11 17.23182 78.54788 2812 ft 216 kts 263°
2026-05-05 12:12 17.23121 78.53220 2776 ft 212 kts 265°
2026-05-05 12:12 17.23094 78.51690 2714 ft 208 kts 266°
2026-05-05 12:12 17.23063 78.50202 2431 ft 204 kts 267°
2026-05-05 12:12 17.23062 78.48713 2400 ft 205 kts 273°
2026-05-05 12:13 17.23250 78.47221 2408 ft 207 kts 277°
2026-05-05 12:13 17.23407 78.45726 2375 ft 206 kts 266°
2026-05-05 12:13 17.22920 78.44364 2597 ft 200 kts 252°